******************************************************************************* JPL/HORIZONS Donati (C/1858 L1) 2025-Dec-12 21:18:25 Rec #:90001726 Soln.date: - # obs: 1000 (1858-1859) IAU76/J2000 helio. ecliptic osc. elements (au, days, deg., period=Julian yrs): EPOCH= 2399960.5 ! 1858-Oct-08.0000000 (TDB) RMSW= n.a. EC= .996295 QR= .578469 TP= 2399952.9644999998 OM= 167.3044 W= 129.1144 IN= 116.9512 A= 156.1319838056698 MA= .003806960154313892 ADIST= 311.6854986113395 PER= 1950.9494603315 N= .000505203 ANGMOM= .018485613 DAN= 3.10875 DDN= .7091 L= 16.4403457 B= 43.7585564 TP= 1858-Sep-30.4644999998 Comet physical (GM= km^3/s^2; RAD= km): GM= n.a. RAD= n.a. M1= n.a. M2= n.a. k1= n.a. k2= n.a. PHCOF= n.a. COMET comments 1: soln ref.= SAO_2008, data arc: 1858-06-07 to 1859-03-04 2: epoch may be 2399961.0 (hour ambiguous: 12h/0h); time units are UT, but set to E ******************************************************************************* ******************************************************************************* Ephemeris / WWW_USER Fri Dec 12 21:18:26 2025 Pasadena, USA / Horizons ******************************************************************************* Target body name: Donati (C/1858 L1) {source: SAO_200820} Center body name: Earth (399) {source: DE441} Center-site name: GEOCENTRIC ******************************************************************************* Start time : A.D. 2023-Jan-01 00:00:00.0000 UT Stop time : A.D. 2030-Jan-01 00:00:00.0000 UT Step-size : 1 calendar year ******************************************************************************* Target pole/equ : undefined Target radii : undefined Center geodetic : 0.0, 0.0, -6378.137 {E-lon(deg),Lat(deg),Alt(km)} Center cylindric: 0.0, 0.0, 0.0 {E-lon(deg),Dxy(km),Dz(km)} Center pole/equ : ITRF93 {East-longitude positive} Center radii : 6378.137, 6378.137, 6356.752 km {Equator_a, b, pole_c} Target primary : Sun Vis. interferer : MOON (R_eq= 1737.400) km {source: DE441} Rel. light bend : Sun {source: DE441} Rel. lght bnd GM: 1.3271E+11 km^3/s^2 Small-body perts: Yes {source: SB441-N16} Atmos refraction: NO (AIRLESS) RA format : HMS Time format : CAL Calendar mode : Mixed Julian/Gregorian EOP file : eop.251212.p260310 EOP coverage : DATA-BASED 1962-JAN-20 TO 2025-DEC-12. PREDICTS-> 2026-MAR-09 Units conversion: 1 au= 149597870.700 km, c= 299792.458 km/s, 1 day= 86400.0 s Table cut-offs 1: Elevation (-90.0deg=NO ),Airmass (>38.000=NO), Daylight (NO ) Table cut-offs 2: Solar elongation ( 0.0,180.0=NO ),Local Hour Angle( 0.0=NO ) Table cut-offs 3: RA/DEC angular rate ( 0.0=NO ) ******************************************************************************* Initial IAU76/J2000 heliocentric ecliptic osculating elements (au, days, deg.): EPOCH= 2399960.5 ! 1858-Oct-08.0000000 (TDB) RMSW= n.a. EC= .996295 QR= .578469 TP= 2399952.9644999998 OM= 167.3044 W= 129.1144 IN= 116.9512 Equivalent ICRF heliocentric cartesian coordinates (au, au/d): X= 5.486276539922146E-01 Y=-9.332068433687440E-02 Z= 2.316495931861619E-01 VX= 1.691324144202575E-02 VY=-5.232983287691349E-03 VZ=-2.581593126583802E-02 Comet physical (GM= km^3/s^2; RAD= km): GM= n.a. RAD= n.a. M1= n.a. M2= n.a. k1= n.a. k2= n.a. PHCOF= n.a. ******************************************************************************* Date__(UT)__HR:MN r rdot VmagSn VmagOb *************************************************************************** $$SOE 2023-Jan-01 00:00 147.3295362011 2.4202073 2.4307002 28.5866644 2024-Jan-01 00:00 147.8393463205 2.4166554 2.4274230 28.5839544 2025-Jan-01 00:00 148.3496983245 2.4119916 2.4227399 28.6012289 2026-Jan-01 00:00 148.8574703053 2.4052076 2.4156488 28.5817892 2027-Jan-01 00:00 149.3635987858 2.3964733 2.4064832 28.6038530 2028-Jan-01 00:00 149.8676727521 2.3858683 2.3954140 28.6197487 2029-Jan-01 00:00 150.3707868987 2.3743391 2.3834778 28.6068680 2030-Jan-01 00:00 150.8700583561 2.3627072 2.3716043 28.6401968 $$EOE ******************************************************************************* Column meaning: TIME Times PRIOR to 1962 are UT1, a mean-solar time closely related to the prior but now-deprecated GMT. Times AFTER 1962 are in UTC, the current civil or "wall-clock" time-scale. UTC is kept within 0.9 seconds of UT1 using integer leap-seconds for 1972 and later years. Conversion from the internal Barycentric Dynamical Time (TDB) of solar system dynamics to the non-uniform civil UT time-scale requested for output has not been determined for UTC times after the next July or January 1st. Therefore, the last known leap-second is used as a constant over future intervals. Time tags refer to the UT time-scale conversion from TDB on Earth regardless of observer location within the solar system, although clock rates may differ due to the local gravity field and no analog to "UT" may be defined for that location. Any 'b' symbol in the 1st-column denotes a B.C. date. First-column blank (" ") denotes an A.D. date. CALENDAR SYSTEM Mixed calendar mode was active such that calendar dates after AD 1582-Oct-15 (if any) are in the modern Gregorian system. Dates prior to 1582-Oct-5 (if any) are in the Julian calendar system, which is automatically extended for dates prior to its adoption on 45-Jan-1 BC. The Julian calendar is useful for matching historical dates. The Gregorian calendar more accurately corresponds to the Earth's orbital motion and seasons. A "Gregorian-only" calendar mode is available if such physical events are the primary interest. NOTE: "n.a." in output means quantity "not available" at the print-time. 'r rdot' = The Sun's apparent range ("r", light-time aberrated) and range-rate ("rdot") relative to the target center, as seen by the observer. A positive "rdot" means the target center was moving away from the Sun, negative means moving toward the Sun. Units: AU and KM/S 'VmagSn VmagOb' = Magnitude of target centers' velocity with respect to the Sun ("VmagSn") and the observer ("VmagOb") at the time light left the target center to be observed (print time minus down-leg light-time). These are absolute values of the velocity vectors (total speeds) and do NOT indicate direction of motion. Units: KM/S Computations by ... Solar System Dynamics Group, Horizons On-Line Ephemeris System 4800 Oak Grove Drive, Jet Propulsion Laboratory Pasadena, CA 91109 USA General site: https://ssd.jpl.nasa.gov/ Mailing list: https://ssd.jpl.nasa.gov/email_list.html System news : https://ssd.jpl.nasa.gov/horizons/news.html User Guide : https://ssd.jpl.nasa.gov/horizons/manual.html Connect : browser https://ssd.jpl.nasa.gov/horizons/app.html#/x API https://ssd-api.jpl.nasa.gov/doc/horizons.html command-line telnet ssd.jpl.nasa.gov 6775 e-mail/batch https://ssd.jpl.nasa.gov/ftp/ssd/horizons_batch.txt scripts https://ssd.jpl.nasa.gov/ftp/ssd/SCRIPTS Author : Jon.D.Giorgini@jpl.nasa.gov ******************************************************************************* !$$SOF COMMAND = '1858 L1' QUANTITIES = '19,22' START_TIME = '2023-01-01' STEP_SIZE = '1 year' STOP_TIME = '2030-01-01'